Location: ????????
(55.6189°N, 38.3031°E)
Time: 02:11:58
(UTC+00:00)

Cosmos 2082 Rocket - Pass Details

Date: 15 November 2019
Orbit: 833 x 853 km, 71.0° (Epoch: 14 December)

Event Time Altitude Azimuth Distance (km) Brightness Sun altitude
Exits shadow 03:09:51 11° 235° (SW) 2,391 4.1 -15.3°
Maximum altitude 03:15:11 54° 312° (NW) 1,029 2.3 -14.5°
Drops below altitude 10° 03:20:49 10° 30° (NNE) 2,491 4.9 -13.8°
Sets 03:23:20 0° 36° (NE) 3,427 5.7 -13.4°
